Location: Presov
(49.0000°N, 21.2500°E)
Time: 22:29:45
(UTC+02:00)

ISS - Pass Details

Date: 29 March 2019
Orbit: 408 x 410 km, 51.6° (Epoch: 23 April)

Event Time Altitude Azimuth Distance (km) Brightness Sun altitude
Rises 20:05:34 0° 284° (WNW) 2,338 1.4 -20.1°
Reaches altitude 10° 20:07:41 10° 288° (WNW) 1,475 0.1 -20.4°
Enters shadow 20:10:55 56° 5° (N) 494 -3.4 -20.8°
